Погода в Натальине

Россия / Курская область     51°46′12″N   37°47′49″E
темп.,
°C
ветер,
м/с
пор.,
м/с
влажн.,
%
обл.,
%
осадки,
мм/ч
давл.,
гПа
погр.,
м
18 января, пн
пн1800:00−19всв1296100 0.0 101820
03:00−18св2396100 0.0 101873
06:00−18св2396100 0.0 101862
09:00−18всв2496100 0.0 1019130
12:00−17всв2395100 0.0 1018233
15:00−16св2394100 0.1 1018222
18:00−17св249798 0.1 1018129
21:00−18с009798 0.3 101820
19 января, вт
вт1900:00−19ссв239898 0.1 101921
03:00−22з0110078 0.1 101920
06:00−21ссз229988 0.0 101920
09:00−21ссз119891 0.1 102023
12:00−19зсз129596 0.0 1020117
15:00−19сз239687 0.0 101999
18:00−22зсз239722 0.0 102020
21:00−23зсз239713 0.0 102120
20 января, ср
ср2000:00−24зсз339767 0.0 102131
03:00−22зсз339783 0.0 102270
06:00−22зсз2397100 0.0 102252
09:00−21з2397100 0.1 102371
12:00−19з239521 0.0 1024120
15:00−18з239510 0.0 102484
18:00−21з22960 0.0 102620
21:00−21зюз23960 0.0 102720
21 января, чт
чт2100:00−20юз23960 0.0 102721
03:00−20ююз34960 0.0 102746
06:00−20ююз47970 0.0 102797
09:00−19ю510930 0.0 1026162
12:00−14ююз6128751 0.0 1025273
15:00−11ююз7139270 0.0 1022339
18:00−8ююз71693100 0.1 1021452
21:00−5юз81594100 0.6 1020537
22 января, пт
пт2200:00−1юз81592100 0.2 1018654
03:000юз81492100 0.2 1018650
06:000зюз71392100 0.0 1017646
09:00+1юз61193100 0.0 1017556
12:00+1юз6119795 0.0 1017538
15:00+1юз6129792 0.0 1017516
18:00+1юз71197100 0.0 1016516
21:00+1юз71297100 0.0 1016529